Location: Haliburton Scout Reserve
(45.0900°N, 78.3200°W)
Time: 13:07:17
(UTC-04:00)

EO-79 - Visible Passes

Search period start: 17 May 2022 00:00
Search period end: 27 May 2022 00:00
Orbit: 588 x 606 km, 98.0° (Epoch: 17 May)

Date Brightness Start Highest point End Pass type
(mag) Time Alt. Az. Time Alt. Az. Time Alt. Az.
17 May ? 02:18:45 10° NNE 02:22:31 32° E 02:22:59 31° ESE visible
17 May ? 03:54:38 10° NNW 03:58:01 24° WNW 03:59:41 19° W visible
18 May ? 02:28:43 10° NNE 02:32:40 41° E 02:33:16 38° ESE visible
18 May ? 04:05:01 10° NNW 04:08:02 20° WNW 04:09:57 15° W visible
19 May ? 02:38:43 10° NNE 02:42:48 53° E 02:43:32 46° SE visible
19 May ? 04:15:29 10° NNW 04:18:02 16° WNW 04:20:14 11° W visible
20 May ? 02:48:45 10° NNE 02:52:56 69° ESE 02:53:48 51° SSE visible
20 May ? 04:26:08 10° NNW 04:28:00 13° WNW 04:29:52 10° W visible
21 May ? 02:58:49 10° NNE 03:03:01 89° ESE 03:04:03 50° SSW visible
21 May ? 04:37:24 10° NW 04:37:57 10° WNW 04:38:31 10° WNW visible
22 May ? 01:35:56 10° ENE 01:36:58 11° E 01:37:37 10° E visible
22 May ? 03:08:55 10° N 03:13:05 72° WNW 03:14:18 44° SW visible
23 May ? 01:44:57 10° ENE 01:47:09 14° E 01:47:51 13° ESE visible
23 May ? 03:19:03 10° N 03:23:08 55° WNW 03:24:32 36° SW visible
24 May ? 01:54:28 10° NE 01:57:19 18° E 01:58:04 17° ESE visible
24 May ? 03:29:12 10° N 03:33:09 43° WNW 03:34:45 29° WSW visible
25 May ? 02:04:10 10° NE 02:07:27 22° E 02:08:17 21° ESE visible
25 May ? 03:39:23 10° N 03:43:09 34° WNW 03:44:58 23° WSW visible
26 May ? 02:13:58 10° NE 02:17:34 28° E 02:18:30 26° ESE visible
26 May ? 03:49:36 10° N 03:53:09 27° WNW 03:55:11 18° WSW visible
